Regional Weather Roundup
Issued by NWS Cleveland, OH

Home | Current Version | Previous Version | Graphics & Text | Print | Product List | Glossary On
Versions: 1 2 3 4 5 6 7 8 9 10 11 12 13 14 15 16 17 18 19 20 21 22 23 24 25 26 27 28 29 30 31 32 33 34 35 36 37 38 39 40 41 42 43 44 45 46 47 48 49 50
000
ASUS41 KCLE 250900
RWRCLE
OHIO REGIONAL WEATHER ROUNDUP
NATIONAL WEATHER SERVICE WILMINGTON, OH
400 AM EST SUN JAN 25 2015

NOTE: "FAIR" INDICATES FEW OR NO CLOUDS BELOW 12,000 FEET WITH NO
SIGNIFICANT WEATHER AND/OR OBSTRUCTIONS TO VISIBILITY.

OHZ001>008-015>018-024>027-034-035-043-044-251000-
   NORTHWEST OHIO

CITY           SKY/WX    TMP DP  RH WIND       PRES   REMARKS
DEFIANCE       CLOUDY    36  33  89 CALM      29.71S
FINDLAY        CLOUDY    36  31  82 SW5       29.71R
TOLEDO EXPRESS CLOUDY    34  32  92 SW5       29.71R WCI  30
TOLEDO EXEC    CLOUDY    35  31  85 SW3       29.72S
LIMA           MOCLDY    37  31  78 S6        29.70F
$$

OHZ009>014-019>023-028>033-038-089-251000-
   NORTHEAST OHIO

CITY           SKY/WX    TMP DP  RH WIND       PRES   REMARKS
CLE-HOPKINS    CLOUDY    34  31  88 SW6       29.75R FOG     WCI  29
CLE-LAKEFRONT  LGT SNOW  34  32  92 SW8       29.72S FOG     WCI  27
CUY CO. ARPT   NOT AVBL
LORAIN-ELYRIA  CLOUDY    34  31  88 W8        29.72S WCI  27
ASHTABULA      CLOUDY    34  30  85 W7        29.71R WCI  28
AKRON-CANTON   LGT SNOW  34  30  85 SW7       29.72R FOG     WCI  28
WOOSTER        CLOUDY    34  30  86 SW7       29.73S FOG     WCI  28
MANSFIELD      CLOUDY    34  31  88 SW8       29.71F WCI  27
YOUNGSTOWN     LGT SNOW  33  31  92 SW8       29.71R FOG     WCI  26
$$

OHZ042-051>053-060>062-070>072-077>081-251000-
  SOUTHWEST OHIO

CITY           SKY/WX    TMP DP  RH WIND       PRES   REMARKS
CINC-COVINGTON CLOUDY    36  30  79 SW8       29.75F
CINC-LUNKEN    CLOUDY    30  28  92 W3        29.79S
HAMILTON       CLOUDY    33  30  88 CALM      29.77S
DAYTON         NOT AVBL
WRIGHT-PAT AFB NOT AVBL
DAYTON GENERAL CLOUDY    33  29  85 S8        29.73F WCI  26
WILMINGTON     MOCLDY    32  28  85 S8        29.74F FOG     WCI  25
$$

OHZ036-037-039>041-045>050-054>059-063>069-073>076-082>088-251000-
  CENTRAL AND SOUTHEAST OHIO

CITY           SKY/WX    TMP DP  RH WIND       PRES   REMARKS
COLUMBUS       CLOUDY    34  29  82 S8        29.75F WCI  27
OSU AIRPORT    CLOUDY    36  30  79 S7        29.74F
BOLTON FIELD   NOT AVBL
RICKENBACK AFB NOT AVBL
NEWARK         CLOUDY    35  30  82 S5        29.74F
MARION         CLOUDY    35  30  82 SW9       29.72F WCI  28
LANCASTER      CLOUDY    36  31  82 SW7       29.76F
ZANESVILLE     CLOUDY    33  29  85 S8        29.76F FOG     WCI  26
NEW PHILLY     CLOUDY    35  30  82 SW3       29.76S
$$



USA.gov is the U.S. government's official web portal to all federal, state and local government web resources and services.